Iliamna, AK

9:35 PM AKST on November 21, 2017 (GMT -0900)
Iliamna

Weather History for PAIL - September, 2012

Change the Weather History Date:

Saturday, September 15, 2012

  Actual Average Record
Temperature  
Mean Temperature 48 °F -  
Max Temperature 51 °F 55 °F 63 °F (1986)
Min Temperature 44 °F 44 °F 31 °F (1942)
Degree Days  
Heating Degree Days 18    
Moisture  
Dew Point 46 °F    
Average Humidity 85    
Maximum Humidity 93    
Minimum Humidity 77    
Precipitation  
Precipitation 0.43 in - - ()
Sea Level Pressure  
Sea Level Pressure 29.59 in    
Wind  
Wind Speed 13 mph (East)    
Max Wind Speed 28 mph    
Max Gust Speed 40 mph    
Visibility 9 miles    
Events Rain    
Averages and records for this station are not official NWS values.
T = Trace of Precipitation, MM = Missing Value Source: NWS Daily Summary

Daily Weather History Graph

Daily Weather History Graph

Search for Another Location

Airport or City:

Trip Planner

Search our weather history database for the weather conditions in past years. The results will help you decide how hot, cold, wet, or windy it might be!

Date:

Astronomy

Sep. 15, 2012 Rise Set
Actual Time 7:49 AM AKDT 8:38 PM AKDT
Civil Twilight 7:07 AM AKDT 9:19 PM AKDT
Nautical Twilight 6:16 AM AKDT 10:11 PM AKDT
Astronomical Twilight 5:18 AM AKDT 11:08 PM AKDT
Moon 7:42 AM AKDT (9/15) 7:56 PM AKDT (9/15)
Length of Visible Light 14h 12m
Length of Day
12h 48m
Waning Crescent, 0% of the Moon is Illuminated
Sep 15
Waning Crescent
Sep 15
New
Sep 22
First Quarter
Sep 29
Full
Oct 7
Last Quarter

Hourly Weather History & Observations

Time (AKDT) Temp. Dew Point Humidity Pressure Visibility Wind Dir Wind Speed Gust Speed Precip Events Conditions
12:53 AM 48.9 °F 45.0 °F 86% 29.71 in 10.0 mi East 10.4 mph - N/A   Mostly Cloudy
1:53 AM 50.0 °F 45.0 °F 83% 29.72 in 10.0 mi East 6.9 mph - N/A   Overcast
2:53 AM 50.0 °F 45.0 °F 83% 29.71 in 10.0 mi East 8.1 mph - N/A   Overcast
3:53 AM 50.0 °F 45.0 °F 83% 29.70 in 10.0 mi East 10.4 mph - N/A   Overcast
4:53 AM 50.0 °F 45.0 °F 83% 29.70 in 10.0 mi ENE 10.4 mph - 0.00 in   Overcast
5:53 AM 50.0 °F 45.0 °F 83% 29.69 in 10.0 mi ENE 10.4 mph - 0.00 in   Overcast
6:26 AM 50.0 °F 44.6 °F 82% 29.69 in 10.0 mi East 9.2 mph - N/A   Overcast
6:53 AM 50.0 °F 45.0 °F 83% 29.69 in 10.0 mi East 12.7 mph 19.6 mph N/A   Overcast
7:53 AM 50.0 °F 45.0 °F 83% 29.68 in 10.0 mi East 11.5 mph - N/A   Overcast
8:53 AM 50.0 °F 45.0 °F 83% 29.67 in 10.0 mi East 15.0 mph - N/A   Overcast
9:53 AM 50.0 °F 45.0 °F 83% 29.67 in 10.0 mi East 10.4 mph - 0.00 in Rain Light Rain
10:27 AM 50.0 °F 46.4 °F 87% 29.67 in 10.0 mi East 9.2 mph - 0.01 in Rain Light Rain
10:53 AM 50.0 °F 46.9 °F 89% 29.67 in 10.0 mi East 10.4 mph - 0.02 in Rain Light Rain
11:53 AM 50.0 °F 48.0 °F 93% 29.66 in 6.0 mi East 11.5 mph - 0.04 in Rain Rain
12:53 PM 50.0 °F 48.0 °F 93% 29.64 in 10.0 mi East 17.3 mph 26.5 mph 0.04 in Rain Light Rain
1:53 PM 50.0 °F 48.0 °F 93% 29.62 in 6.0 mi East 13.8 mph 23.0 mph 0.05 in Rain Rain
2:53 PM 51.1 °F 48.0 °F 89% 29.57 in 6.0 mi East 19.6 mph 27.6 mph 0.14 in Rain Rain
3:53 PM 51.1 °F 46.0 °F 83% 29.56 in 7.0 mi East 26.5 mph 35.7 mph 0.13 in Rain Rain
4:53 PM 50.0 °F 46.0 °F 86% 29.53 in 10.0 mi East 18.4 mph 31.1 mph 0.10 in Rain Light Rain
5:53 PM 48.9 °F 45.0 °F 86% 29.49 in 7.0 mi East 21.9 mph 31.1 mph 0.03 in Rain Rain
6:53 PM 50.0 °F 46.0 °F 86% 29.44 in 9.0 mi East 20.7 mph 34.5 mph 0.08 in Rain Light Rain
7:53 PM 48.9 °F 45.0 °F 86% 29.41 in 7.0 mi East 23.0 mph 40.3 mph 0.06 in Rain Rain
8:53 PM 48.0 °F 45.0 °F 89% 29.40 in 6.0 mi East 27.6 mph 39.1 mph 0.11 in Rain Rain
9:53 PM 48.0 °F 44.1 °F 86% 29.37 in 10.0 mi East 25.3 mph 38.0 mph 0.05 in Rain Light Rain
10:53 PM 48.9 °F 43.0 °F 80% 29.34 in 10.0 mi East 18.4 mph 31.1 mph 0.03 in Rain Light Rain
11:53 PM 48.9 °F 45.0 °F 86% 29.33 in 10.0 mi East 17.3 mph 29.9 mph 0.03 in Rain Light Rain